IS0GQX-3 Weather Reports


time (UTC)temp
F
wind
direction
speed
knots
gust
knots
rain 1hr
in
rain 24hr
in
rain mn
in
humidity
%
barometer
mb
20260505180733 75 0.0 0.0 0.00 0.00 2.80 1014.8
20260505172938 77 0.0 0.0 0.00 0.00 0.00 1014.6
20260505170956 77 0.0 0.0 0.00 0.00 0.00 1014.3
20260505164939 78 0.0 0.0 0.00 0.00 0.00 1015.0
20260505163000 79 0.0 0.0 0.00 0.00 0.00 1014.8
20260505160939 80 0.0 0.0 0.00 0.00 0.00 1015.0
20260505150936 84 0.0 0.0 0.00 0.00 0.00 1015.1
20260505124934 88 0.0 0.0 0.00 0.00 0.00 1015.8
20260505122934 86 0.0 0.0 0.00 0.00 0.00 1015.9
20260505120934 85 0.0 0.0 0.00 0.00 0.00 1015.9
20260505114933 78 0.0 0.0 0.00 0.00 0.00 1016.7
20260505112933 77 0.0 0.0 0.00 0.00 0.00 1016.8
20260505110933 76 0.0 0.0 0.00 0.00 0.00 1016.7
20260505100932 78 0.0 0.0 0.00 0.00 0.00 1017.4
20260505094931 77 0.0 0.0 0.00 0.00 0.00 1017.5
20260505092931 78 0.0 0.0 0.00 0.00 0.00 1017.3
20260505090931 78 0.0 0.0 0.00 0.00 0.00 1017.2
20260505084931 80 0.0 0.0 0.00 0.00 0.00 1016.6
20260505082930 80 0.0 0.0 0.00 0.00 0.00 1016.2
20260505080930 80 0.0 0.0 0.00 0.00 0.00 1016.0
20260505074930 79 0.0 0.0 0.00 0.00 0.00 1016.1
20260505072929 79 0.0 0.0 0.00 0.00 0.00 1016.4
20260505070929 78 0.0 0.0 0.00 0.00 0.00 1016.5
20260505064929 78 0.0 0.0 0.00 0.00 0.00 1016.4
20260505062928 77 0.0 0.0 0.00 0.00 0.00 1016.4
20260505060928 77 0.0 0.0 0.00 0.00 0.00 1016.7
20260505054928 76 0.0 0.0 0.00 0.00 0.00 1016.5
20260505052927 77 0.0 0.0 0.00 0.00 0.00 1016.6
20260505050927 77 0.0 0.0 0.00 0.00 0.00 1016.5
20260505040926 77 0.0 0.0 0.00 0.00 0.00 1016.2
20260505034927 76 0.0 0.0 0.00 0.00 0.00 1016.5
20260505032927 77 0.0 0.0 0.00 0.00 0.00 1015.8
20260505030925 77 0.0 0.0 0.00 0.00 0.00 1016.1
20260505024925 75 0.0 0.0 0.00 0.00 0.00 1015.8
20260505022926 75 0.0 0.0 0.00 0.00 0.00 1016.4
20260505020924 76 0.0 0.0 0.00 0.00 0.00 1016.8
20260505014924 76 0.0 0.0 0.00 0.00 0.00 1016.7
20260505012924 76 0.0 0.0 0.00 0.00 0.00 1016.7
20260505010923 76 0.0 0.0 0.00 0.00 0.00 1016.9
20260505004923 75 0.0 0.0 0.00 0.00 0.00 1016.9
20260505002923 75 0.0 0.0 0.00 0.00 0.00 1017.2
20260505000923 76 0.0 0.0 0.00 0.00 0.00 1017.3
20260504234923 76 0.0 0.0 0.00 0.00 0.00 1017.5
20260504232922 77 0.0 0.0 0.00 0.00 0.00 1017.4
20260504230922 77 0.0 0.0 0.00 0.00 0.00 1017.9
20260504224921 77 0.0 0.0 0.00 0.00 0.00 1017.9
20260504222921 77 0.0 0.0 0.00 0.00 0.00 1017.2
20260504220921 78 0.0 0.0 0.00 0.00 0.00 1017.9
20260504214920 78 0.0 0.0 0.00 0.00 0.00 1018.0
20260504212921 78 0.0 0.0 0.00 0.00 0.00 1018.2
20260504210921 78 0.0 0.0 0.00 0.00 0.00 1018.2
20260504204919 78 0.0 0.0 0.00 0.00 0.00 1018.3
20260504202920 78 0.0 0.0 0.00 0.00 0.00 1018.4
20260504200919 79 0.0 0.0 0.00 0.00 0.00 1018.2
20260504194919 78 0.0 0.0 0.00 0.00 0.00 1017.8
20260504192918 78 0.0 0.0 0.00 0.00 0.00 1017.9
20260504190920 77 0.0 0.0 0.00 0.00 0.00 1017.9
20260504184917 78 0.0 0.0 0.00 0.00 0.00 1017.7
20260504182917 79 0.0 0.0 0.00 0.00 0.00 1017.0